Tracking 19827 objects as of 22-Aug-2019
HD Live streaming from Space Station
objects crossing your sky now

COSMOS 2251 DEB

Track COSMOS 2251 DEB now!
10-day predictions


NORAD ID: 34747
Int'l Code: 1993-036ZR
Perigee: 566.1 km
Apogee: 636.5 km
Inclination: 74.0 °
Period: 96.6 minutes
Semi major axis: 6972 km
RCS: 0.0037 m2 (small)
Launch date: June 16, 1993
Source: Commonwealth of Independent States (former USSR) (CIS)
Launch site: PLESETSK MISSILE AND SPACE COMPLEX (PKMTR)

Note: This is SATELLITE DEBRIS
aabbcc
Your satellite tracking list
Your tracking list is empty




NASA's NSSDC Master Catalog

Two Line Element Set (TLE):
1 34747U 93036ZR  19233.92319756 +.00001432 +00000-0 +14459-3 0  9992
2 34747 073.9858 074.7519 0050485 096.5121 264.1812 14.91201446562803
Source of the keplerian elements: AFSPC